[[{"header":{"parameterUnit":"m.s-1","parameterCategory":1,"la1":30.2991,"la2":30.254,"lo1":-89.0895,"lo2":-89.0444,"dy":0.0017,"dx":0.0017,"nx":28,"ny":28,"refTime":"2024-07-17T03:00:00:Z","depth":0,"parameterNumber":2,"parameterNumberName":"U-component_of_WINDS"},"data":[0,0,0,0,0,0,0,0,0,0,0,0,0,0,0,0,0,0,0,0,0,0,0,0,0,0,0,0,0,0,0,0,0,0,0,0,0,0,0,0,0,0,0,0,0,0,0,0,0,0,0,0,0,0,0,0,0,0,2.8582,2.8583,0,2.8657,2.8658,2.8659,2.8618,2.8616,2.8614,2.8612,2.8688,2.8691,2.8695,0,0,0,0,0,0,0,0,0,0,0,0,0,2.8402,2.8405,2.8582,2.8583,2.8584,2.8657,2.8658,2.8659,2.8619,2.8616,2.8614,2.8612,2.8686,2.8691,2.8696,0,0,0,0,0,0,0,0,0,0,0,0,0,2.8479,2.8406,2.8582,2.8573,2.8573,2.8657,2.8658,2.8659,2.8619,2.8616,2.8613,2.861,2.8685,2.8691,2.8696,2.8793,0,0,2.8714,2.8717,0,0,0,0,0,0,0,0,2.8474,2.8485,2.8573,2.8574,2.8574,2.8625,2.8622,2.8704,2.862,2.8602,2.8612,2.8609,2.8669,2.8676,2.8697,2.8797,2.88,2.8715,2.8718,2.8721,2.8722,0,0,0,0,0,0,0,2.8469,2.8482,2.8612,2.8575,2.8575,2.8564,2.8572,2.8637,2.8652,2.8603,2.86,2.861,2.8669,2.8691,2.8698,2.8801,2.8714,2.872,2.8723,2.8725,2.8979,2.8982,0,0,0,0,0,0,2.8465,2.8478,2.8609,2.8614,2.8516,2.857,2.8578,2.8612,2.8651,2.8654,2.8612,2.8608,2.8683,2.8692,2.8701,2.8813,2.8721,2.8726,2.8729,2.8976,2.898,2.8983,0,0,0,0,0,0,2.8461,2.8477,2.8606,2.8545,2.8561,2.8576,2.8614,2.8615,2.8637,2.8658,2.866,2.8633,2.8681,2.8693,2.8769,2.8815,2.8729,2.8734,2.8972,2.8977,2.8982,2.9041,0,0,0,0,0,0,2.8456,2.8476,2.8514,2.8546,2.8564,2.8675,2.8617,2.8619,2.8648,2.8642,2.8678,2.868,2.8679,2.8761,2.8775,2.8822,2.8739,2.8968,2.8974,2.898,2.9035,2.9047,2.9058,0,0,0,0,0,2.845,2.8528,2.8516,2.8532,2.8612,2.8678,2.8688,2.8685,2.8652,2.8689,2.8701,2.8679,2.8809,2.8769,2.8785,2.8834,2.8965,2.8973,2.898,2.903,2.9045,2.9057,0,0,0,0,0,0,2.8501,2.8532,2.8519,2.8611,2.8642,2.8671,2.8718,2.8702,2.8743,2.8737,2.8731,2.874,2.8819,2.8834,2.879,2.8927,2.8881,2.8892,2.8914,2.8928,2.894,2.8933,2.8743,0,0,0,0,0,2.8522,2.8574,2.8599,2.8677,2.8693,2.8703,2.8732,2.8727,2.8759,2.8772,2.879,2.8821,2.8868,2.89,2.8945,2.9038,2.9043,2.9079,2.909,2.9099,2.9108,2.9154,2.9169,2.9007,2.9007,2.9007,0,0,2.8568,2.8592,2.8625,2.8688,2.8711,2.8763,2.8715,2.8772,2.881,2.8781,2.8853,2.8868,2.8902,2.8986,2.9024,2.9002,2.9154,2.9109,2.9116,2.9119,2.9163,2.9178,2.9192,2.9012,2.9011,2.9011,0,0,2.8677,2.8702,2.8768,2.8792,2.8828,2.8834,2.8849,2.8881,2.8889,2.8962,2.894,2.8984,2.9067,2.9091,2.9114,2.9229,2.9209,2.9244,2.9303,2.9348,2.9361,2.9372,2.941,2.9424,2.9253,2.9254,2.9254,0,2.8729,2.8807,2.8804,2.8862,2.8889,2.8864,2.893,2.8953,2.9002,2.9021,2.8995,2.9095,2.9117,2.9205,2.9232,2.9254,2.9269,2.9239,2.936,2.9371,2.9381,2.9417,2.9431,2.9257,2.9257,2.9256,2.9256,0,2.8867,2.8921,2.897,2.9017,2.905,2.9112,2.9116,2.9149,2.9141,2.9149,2.9221,2.9247,2.9294,2.9315,2.9309,2.9401,2.9385,2.936,2.9313,2.94,2.9433,2.9447,2.9263,2.9261,2.926,2.9259,0,0,2.901,2.9053,2.907,2.909,2.9127,2.9168,2.9227,2.9274,2.9301,2.9335,2.9383,2.9452,2.9428,2.9454,2.945,2.949,2.9575,2.9459,2.9459,2.9476,2.9673,2.969,2.9706,2.9562,2.9565,2.9567,2.9669,0,2.9119,2.9223,2.922,2.9316,2.9364,2.9341,2.9392,2.9419,2.9428,2.9468,2.9478,2.9525,2.9492,2.9507,2.9546,2.9556,2.9614,2.9549,2.9604,2.9606,2.9593,2.9724,2.9742,2.9837,2.9683,2.9685,2.9687,0,2.9259,2.9297,2.9397,2.9424,2.9444,2.949,2.953,2.9571,2.96,2.9603,2.9632,2.962,2.9678,2.9631,2.9709,2.9666,2.9688,2.9696,2.97,2.9703,2.965,2.9727,2.9868,2.9881,2.9708,2.9706,2.9705,0,2.9349,2.9425,2.9494,2.9511,2.9545,2.9578,2.9593,2.962,2.9647,2.9682,2.9699,2.9741,2.9763,2.9795,2.9794,2.9761,2.9872,2.9826,2.9874,2.9874,2.9896,2.9894,3.004,2.9917,2.9916,2.9916,2.9916,0,2.9468,2.953,2.9534,2.9576,2.9643,2.9639,2.9705,2.9717,2.9741,2.9783,2.9767,2.9807,2.9805,2.9845,2.9845,2.9907,2.9919,2.9921,2.9919,2.9921,2.992,2.9933,2.9925,2.992,2.9919,2.9918,2.9918,0,2.9579,2.9584,2.9657,2.9683,2.969,2.9738,2.9759,2.9798,2.9805,2.9859,2.9871,2.9881,2.9927,2.993,2.9984,2.9984,3.0058,3.0052,3.0048,3.0046,3.0092,3.0086,3.0248,3.0268,3.0135,3.0136,3.0137,0,2.9653,2.97,2.973,2.9757,2.9774,2.9818,2.9845,2.9843,2.9871,2.9906,2.994,2.9985,3.002,3.0094,3.0105,3.0145,3.0137,3.0191,3.0143,3.0141,3.0133,3.0129,3.0132,3.02,3.0201,3.0202,3.0203,0,2.9783,2.9783,2.9823,2.9863,2.9895,2.9926,2.9956,2.9979,2.9979,3.0012,3.0058,3.0085,3.0139,3.0182,3.0221,3.0235,3.0218,3.0219,3.0231,3.0231,3.0226,3.0225,3.007,3.0214,3.0213,3.0212,3.0212,3.0211,2.9876,2.9914,2.994,2.9984,3.0006,3.0033,3.0069,3.008,3.0118,3.0161,3.0158,3.0208,3.0234,3.0284,3.0301,3.034,3.0321,3.034,3.0344,3.0348,3.0351,3.0222,3.0347,3.0347,3.0347,3.0346,3.0346,0,3.0002,3.0017,3.0057,3.0098,3.0131,3.0114,3.0144,3.0173,3.0218,3.0243,3.0277,3.0329,3.037,3.0384,3.0424,3.0451,3.0444,3.0461,3.0458,3.046,3.0367,3.0351,3.0466,3.0466,3.0466,3.0466,3.0466,3.0466,3.0071,3.0134,3.0137,3.0209,3.0224,3.0273,3.0292,3.0315,3.0335,3.0393,3.0427,3.0436,3.0456,3.0496,3.0532,3.0535,3.0549,3.0568,3.0568,3.048,3.0468,3.0456,3.044,3.0572,3.0572,3.0657,3.0658,3.0658]},{"header":{"parameterUnit":"m.s-1","parameterCategory":1,"la1":30.2991,"la2":30.254,"lo1":-89.0895,"lo2":-89.0444,"dy":0.0017,"dx":0.0017,"nx":28,"ny":28,"refTime":"2024-07-17T03:00:00:Z","depth":0,"parameterNumber":3,"parameterNumberName":"V-component_of_WINDS"},"data":[0,0,0,0,0,0,0,0,0,0,0,0,0,0,0,0,0,0,0,0,0,0,0,0,0,0,0,0,0,0,0,0,0,0,0,0,0,0,0,0,0,0,0,0,0,0,0,0,0,0,0,0,0,0,0,0,0,0,2.6841,2.6842,0,2.6931,2.6932,2.6933,2.6925,2.6924,2.6922,2.6921,2.7008,2.7012,2.7015,0,0,0,0,0,0,0,0,0,0,0,0,0,2.6658,2.6661,2.6841,2.6842,2.6843,2.693,2.6932,2.6933,2.6925,2.6924,2.6922,2.692,2.7007,2.7011,2.7016,0,0,0,0,0,0,0,0,0,0,0,0,0,2.6741,2.6662,2.6841,2.685,2.6852,2.693,2.6932,2.6933,2.6926,2.6924,2.6922,2.692,2.7006,2.7011,2.7016,2.709,0,0,2.7032,2.7035,0,0,0,0,0,0,0,0,2.6736,2.6748,2.6848,2.685,2.6852,2.6915,2.6899,2.6985,2.6926,2.6897,2.6921,2.6919,2.6978,2.6986,2.7007,2.7094,2.7097,2.7033,2.7036,2.7039,2.704,0,0,0,0,0,0,0,2.6731,2.6744,2.6876,2.6849,2.6851,2.6848,2.6857,2.6915,2.6948,2.69,2.6899,2.691,2.6979,2.7002,2.7009,2.7099,2.7033,2.7038,2.7041,2.7043,2.7248,2.725,0,0,0,0,0,0,2.6723,2.6739,2.6873,2.6879,2.6788,2.6853,2.6864,2.6896,2.6947,2.6953,2.6912,2.691,2.6994,2.7003,2.7012,2.71,2.7038,2.7044,2.7047,2.7245,2.7248,2.725,0,0,0,0,0,0,2.6719,2.6735,2.687,2.6809,2.6826,2.6858,2.6895,2.6899,2.6922,2.6957,2.6962,2.693,2.6992,2.7004,2.707,2.7103,2.7046,2.7051,2.7243,2.7246,2.7249,2.7277,0,0,0,0,0,0,2.6714,2.6734,2.6764,2.681,2.6829,2.6928,2.6897,2.6902,2.6932,2.693,2.6975,2.698,2.6992,2.7062,2.7075,2.7109,2.7055,2.724,2.7244,2.7248,2.7273,2.7281,2.7288,0,0,0,0,0,2.6708,2.6768,2.6766,2.6782,2.6867,2.693,2.6941,2.6955,2.6935,2.6964,2.6985,2.6979,2.7097,2.7069,2.7084,2.712,2.7238,2.7243,2.7248,2.727,2.728,2.7287,0,0,0,0,0,0,2.6724,2.6774,2.6772,2.6849,2.6886,2.6929,2.6966,2.6964,2.7006,2.7002,2.7016,2.7026,2.7092,2.7112,2.708,2.7192,2.7165,2.7173,2.7176,2.7186,2.7192,2.7186,2.7059,0,0,0,0,0,2.6736,2.6785,2.6826,2.6889,2.6908,2.6934,2.6962,2.6969,2.7007,2.7022,2.7049,2.7084,2.7129,2.7159,2.7202,2.7276,2.7285,2.7308,2.7315,2.7321,2.7327,2.7366,2.7376,2.7267,2.7267,2.7267,0,0,2.6763,2.6796,2.6826,2.6893,2.6923,2.6971,2.6947,2.6999,2.7034,2.7029,2.7093,2.7114,2.7154,2.7224,2.7256,2.7243,2.7359,2.7327,2.7331,2.7335,2.7372,2.7382,2.7391,2.727,2.727,2.7269,0,0,2.6835,2.6866,2.6922,2.6951,2.6996,2.7013,2.7026,2.707,2.7084,2.7148,2.7145,2.7186,2.7264,2.7292,2.7316,2.7398,2.7392,2.7411,2.7448,2.7485,2.7494,2.7501,2.7528,2.7538,2.7418,2.7418,2.7418,0,2.6861,2.6936,2.695,2.7003,2.7032,2.703,2.7085,2.7113,2.7169,2.7188,2.7173,2.727,2.7297,2.7372,2.7392,2.7413,2.7426,2.7406,2.7492,2.7499,2.7507,2.7533,2.7543,2.742,2.742,2.7419,2.7419,0,2.6965,2.7016,2.7055,2.711,2.7144,2.7197,2.7218,2.725,2.7253,2.7271,2.7335,2.7368,2.7417,2.7435,2.7439,2.7511,2.7501,2.7489,2.7461,2.7519,2.7543,2.7553,2.7423,2.7422,2.7421,2.7421,0,0,2.705,2.7112,2.7126,2.715,2.7199,2.7238,2.729,2.7339,2.7365,2.7403,2.7446,2.7511,2.75,2.7528,2.7535,2.7568,2.7627,2.7551,2.7552,2.7563,2.7706,2.7714,2.7725,2.7624,2.7626,2.7628,2.7702,0,2.7126,2.7221,2.7235,2.7317,2.7363,2.7362,2.7407,2.744,2.7458,2.7498,2.7516,2.7562,2.7544,2.756,2.7593,2.7613,2.7656,2.7608,2.7662,2.7664,2.7651,2.7738,2.7748,2.7816,2.7711,2.7713,2.7714,0,2.7228,2.7269,2.7357,2.7397,2.7417,2.7458,2.7503,2.7542,2.7579,2.7589,2.762,2.7622,2.7674,2.7645,2.7715,2.7682,2.7705,2.7718,2.7721,2.7725,2.7692,2.7744,2.7838,2.7847,2.773,2.7729,2.7728,0,2.7279,2.7357,2.7419,2.7439,2.7489,2.7517,2.7539,2.7574,2.7602,2.7641,2.7659,2.7703,2.7726,2.7759,2.7773,2.7751,2.7842,2.7814,2.7849,2.7849,2.7868,2.7866,2.7966,2.7885,2.7885,2.7884,2.7884,0,2.7361,2.7414,2.7442,2.748,2.7538,2.7553,2.761,2.763,2.7661,2.7701,2.7703,2.774,2.7756,2.7795,2.7806,2.7861,2.7872,2.788,2.7882,2.788,2.7878,2.7894,2.7889,2.7887,2.7887,2.7886,2.7886,0,2.7428,2.7449,2.7516,2.7558,2.7569,2.761,2.7644,2.768,2.7697,2.7747,2.776,2.7786,2.7832,2.7849,2.7904,2.7911,2.7975,2.7974,2.7963,2.7963,2.7997,2.7993,2.8109,2.8124,2.8034,2.8035,2.8036,0,2.7479,2.752,2.7566,2.7593,2.7616,2.7661,2.7689,2.7704,2.7734,2.7778,2.7808,2.7854,2.7891,2.7965,2.7987,2.8029,2.8028,2.8065,2.8034,2.8029,2.8026,2.8023,2.8026,2.8071,2.8072,2.8072,2.8073,0,2.7567,2.7575,2.7617,2.7662,2.7697,2.7733,2.7768,2.779,2.781,2.7842,2.789,2.7919,2.7976,2.8021,2.8064,2.8084,2.8081,2.8083,2.8093,2.809,2.8082,2.8085,2.7977,2.808,2.8079,2.8079,2.8078,2.8078,2.7626,2.7661,2.7699,2.7745,2.7773,2.7805,2.784,2.7862,2.7902,2.795,2.7956,2.8007,2.8041,2.8098,2.812,2.8158,2.8148,2.8163,2.8167,2.817,2.8171,2.8076,2.8166,2.8166,2.8166,2.8166,2.8166,0,2.7712,2.7736,2.7778,2.7827,2.7863,2.7859,2.7897,2.7927,2.7972,2.8004,2.8041,2.8095,2.8138,2.8163,2.8206,2.8232,2.8231,2.8242,2.824,2.8244,2.8179,2.8166,2.8242,2.8242,2.8242,2.8242,2.8242,2.8242,2.7761,2.782,2.7832,2.7904,2.7927,2.7978,2.8,2.8029,2.8054,2.8115,2.8151,2.8168,2.8197,2.8242,2.828,2.8286,2.8301,2.8313,2.8318,2.8257,2.8249,2.8241,2.8228,2.8316,2.8317,2.8379,2.838,2.838]}]]